FW5142 Weather Reports


Display with metric or nautical units.
time (UTC)temp
F
wind
direction
speed
MPH
gust
MPH
rain 1hr
in
rain 24hr
in
rain mn
in
humidity
%
barometer
mb
20191020113332 48 175 2.0 5.0 0.00 0.00 0.00 82 1007.7
20191020112832 48 175 2.0 5.0 0.00 0.00 0.00 81 1007.7
20191020112332 48 174 1.0 3.0 0.00 0.00 0.00 81 1007.7
20191020111832 48 174 1.0 3.0 0.00 0.00 0.00 81 1007.8
20191020111332 48 174 2.0 3.0 0.00 0.00 0.00 81 1007.7
20191020110832 48 174 2.0 5.0 0.00 0.00 0.00 81 1007.6
20191020110331 48 174 2.0 5.0 0.00 0.00 0.00 81 1007.5
20191020105831 48 174 2.0 5.0 0.00 0.00 0.00 80 1007.7
20191020105331 48 174 3.0 5.0 0.00 0.00 0.00 80 1007.6
20191020104831 49 174 3.0 5.0 0.00 0.00 0.00 80 1007.7
20191020104331 49 174 3.0 5.0 0.00 0.00 0.00 79 1007.6
20191020103831 49 178 3.0 5.0 0.00 0.00 0.00 79 1007.5
20191020103332 49 167 2.0 5.0 0.00 0.00 0.00 78 1007.4
20191020102832 49 148 2.0 3.0 0.00 0.00 0.00 77 1007.4
20191020102331 49 131 1.0 3.0 0.00 0.00 0.00 77 1007.3
20191020101829 50 131 1.0 2.0 0.00 0.00 0.00 77 1007.3
20191020101329 50 131 1.0 3.0 0.00 0.00 0.00 77 1007.3
20191020100829 50 131 2.0 3.0 0.00 0.00 0.00 77 1007.3
20191020100328 51 131 2.0 3.0 0.00 0.00 0.00 77 1007.3
20191020095830 51 131 2.0 3.0 0.00 0.00 0.00 77 1007.3
20191020095329 51 131 2.0 3.0 0.00 0.00 0.00 77 1007.2
20191020094829 51 131 3.0 4.0 0.00 0.00 0.00 77 1007.3
20191020094329 51 131 3.0 7.0 0.00 0.00 0.00 77 1007.3
20191020093829 51 131 4.0 7.0 0.00 0.00 0.00 77 1007.2
20191020093328 51 138 4.0 7.0 0.00 0.00 0.00 77 1007.2
20191020092830 51 135 4.0 7.0 0.00 0.00 0.00 78 1007.2
20191020092329 51 124 4.0 7.0 0.00 0.00 0.00 78 1007.3
20191020091829 51 119 4.0 7.0 0.00 0.00 0.00 78 1007.2
20191020091330 51 129 4.0 7.0 0.00 0.00 0.00 78 1007.3
20191020090826 51 128 5.0 7.0 0.00 0.00 0.00 78 1007.4
20191020090328 51 126 4.0 7.0 0.00 0.00 0.00 78 1007.5
20191020085827 51 123 4.0 7.0 0.00 0.00 0.00 78 1007.7
20191020085326 51 120 4.0 6.0 0.00 0.00 0.00 77 1007.7
20191020084827 51 123 3.0 6.0 0.00 0.00 0.00 76 1007.7
20191020084328 51 125 3.0 6.0 0.00 0.00 0.00 76 1007.8
20191020083826 51 126 3.0 6.0 0.00 0.00 0.00 75 1007.8
20191020083326 51 126 2.0 3.0 0.00 0.00 0.00 75 1007.9
20191020082822 51 126 2.0 4.0 0.00 0.00 0.00 75 1008.0
20191020082323 51 126 2.0 4.0 0.00 0.00 0.00 75 1008.0
20191020081824 51 132 2.0 3.0 0.00 0.00 0.00 75 1008.0
20191020081322 51 134 3.0 4.0 0.00 0.00 0.00 75 1008.0
20191020080822 51 134 3.0 4.0 0.00 0.00 0.00 75 1008.1
20191020080323 51 125 2.0 4.0 0.00 0.00 0.00 74 1008.2
20191020075822 51 125 2.0 4.0 0.00 0.00 0.00 74 1008.2
20191020075322 51 125 2.0 4.0 0.00 0.00 0.00 74 1008.1
20191020074823 51 125 1.0 3.0 0.00 0.00 0.00 73 1008.2
20191020074323 51 125 1.0 2.0 0.00 0.00 0.00 73 1008.2
20191020073823 51 125 2.0 3.0 0.00 0.00 0.00 73 1008.2
20191020073322 51 125 2.0 3.0 0.00 0.00 0.00 73 1008.3
20191020072822 51 125 2.0 3.0 0.00 0.00 0.00 72 1008.3
20191020072322 51 125 2.0 3.0 0.00 0.00 0.00 72 1008.3
20191020071823 51 125 2.0 3.0 0.00 0.00 0.00 72 1008.4
20191020071323 52 125 2.0 3.0 0.00 0.00 0.00 72 1008.4
20191020070822 52 125 2.0 3.0 0.00 0.00 0.00 71 1008.4
20191020070322 52 125 2.0 4.0 0.00 0.00 0.00 71 1008.4
20191020065823 52 125 2.0 4.0 0.00 0.00 0.00 71 1008.3
20191020065322 52 125 2.0 3.0 0.00 0.00 0.00 70 1008.3
20191020064824 52 125 2.0 3.0 0.00 0.00 0.00 70 1008.3
20191020064322 53 125 2.0 3.0 0.00 0.00 0.00 70 1008.4
20191020063823 53 125 3.0 4.0 0.00 0.00 0.00 70 1008.5
20191020063322 53 125 3.0 4.0 0.00 0.00 0.00 70 1008.5
20191020062821 53 125 3.0 6.0 0.00 0.00 0.00 69 1008.5
20191020062319 53 125 4.0 6.0 0.00 0.00 0.00 69 1008.6
20191020061820 53 125 4.0 6.0 0.00 0.00 0.00 69 1008.6
20191020061320 53 126 3.0 6.0 0.00 0.00 0.00 69 1008.7
20191020060817 53 123 4.0 7.0 0.00 0.00 0.00 68 1008.8
20191020060319 53 126 4.0 7.0 0.00 0.00 0.00 68 1008.8
20191020055817 54 127 4.0 6.0 0.00 0.00 0.00 67 1008.7
20191020055316 54 125 4.0 7.0 0.00 0.00 0.00 67 1008.8
20191020054817 54 118 4.0 7.0 0.00 0.00 0.00 67 1008.9
20191020054316 54 126 4.0 7.0 0.00 0.00 0.00 66 1008.9
20191020053815 54 127 4.0 6.0 0.00 0.00 0.00 66 1009.1
20191020053314 54 119 4.0 7.0 0.00 0.00 0.00 65 1009.2
20191020052814 54 112 5.0 8.0 0.00 0.00 0.00 65 1009.2
20191020052314 55 120 5.0 8.0 0.00 0.00 0.00 65 1009.2
20191020051814 55 107 4.0 7.0 0.00 0.00 0.00 64 1009.2
20191020051315 55 107 5.0 7.0 0.00 0.00 0.00 64 1009.3
20191020050815 55 106 5.0 8.0 0.00 0.00 0.00 64 1009.3
20191020050313 55 110 5.0 8.0 0.00 0.00 0.00 64 1009.4
20191020045813 55 114 4.0 7.0 0.00 0.00 0.00 62 1009.5
20191020045308 55 106 4.0 7.0 0.00 0.00 0.00 62 1009.5
20191020044808 55 105 5.0 6.0 0.00 0.00 0.00 61 1009.5
20191020044308 56 106 4.0 6.0 0.00 0.00 0.00 61 1009.6
20191020043809 56 106 4.0 7.0 0.00 0.00 0.00 61 1009.6
20191020043308 56 99 5.0 7.0 0.00 0.00 0.00 61 1009.6
20191020042809 56 106 5.0 7.0 0.00 0.00 0.00 61 1009.6
20191020042308 56 105 4.0 7.0 0.00 0.00 0.00 61 1009.7
20191020041808 57 107 4.0 6.0 0.00 0.00 0.00 59 1009.7
20191020041308 57 105 4.0 6.0 0.00 0.00 0.00 58 1009.8
20191020040808 57 106 4.0 6.0 0.00 0.00 0.00 57 1009.7
20191020040307 58 94 4.0 6.0 0.00 0.00 0.00 56 1009.8
20191020035807 58 93 3.0 6.0 0.00 0.00 0.00 56 1009.8
20191020035306 58 86 3.0 5.0 0.00 0.00 0.00 55 1009.8
20191020034806 58 84 3.0 6.0 0.00 0.00 0.00 55 1009.8
20191020034306 58 82 4.0 6.0 0.00 0.00 0.00 54 1009.8
20191020033806 59 90 4.0 6.0 0.00 0.00 0.00 53 1009.7
20191020033307 59 87 3.0 6.0 0.00 0.00 0.00 52 1009.7
20191020032806 60 84 3.0 5.0 0.00 0.00 0.00 51 1009.7
20191020032306 60 84 4.0 8.0 0.00 0.00 0.00 51 1009.6
20191020031806 60 79 3.0 8.0 0.00 0.00 0.00 51 1009.6
20191020031306 60 82 3.0 5.0 0.00 0.00 0.00 50 1009.7
20191020030806 60 60 3.0 4.0 0.00 0.00 0.00 51 1009.7
20191020030309 60 60 2.0 3.0 0.00 0.00 0.00 50 1009.6
20191020025807 60 60 2.0 3.0 0.00 0.00 0.00 50 1009.6
20191020025305 61 60 2.0 4.0 0.00 0.00 0.00 50 1009.5
20191020024806 61 60 3.0 4.0 0.00 0.00 0.00 50 1009.6
20191020024304 61 60 2.0 4.0 0.00 0.00 0.00 50 1009.6
20191020023804 61 60 2.0 4.0 0.00 0.00 0.00 50 1009.5
20191020023301 61 60 3.0 4.0 0.00 0.00 0.00 50 1009.6
20191020022801 61 60 3.0 4.0 0.00 0.00 0.00 50 1009.6
20191020022301 61 52 2.0 3.0 0.00 0.00 0.00 51 1009.6
20191020021801 61 52 2.0 3.0 0.00 0.00 0.00 51 1009.5
20191020021300 61 52 2.0 3.0 0.00 0.00 0.00 51 1009.5
20191020020801 61 52 2.0 3.0 0.00 0.00 0.00 52 1009.5
20191020020259 61 52 2.0 3.0 0.00 0.00 0.00 52 1009.6
20191020015759 61 52 2.0 3.0 0.00 0.00 0.00 52 1009.4
20191020015257 61 52 1.0 2.0 0.00 0.00 0.00 52 1009.5
20191020014800 61 52 1.0 2.0 0.00 0.00 0.00 52 1009.5
20191020014258 61 52 1.0 2.0 0.00 0.00 0.00 53 1009.4
20191020013757 62 52 2.0 2.0 0.00 0.00 0.00 53 1009.4
20191020013256 62 52 2.0 2.0 0.00 0.00 0.00 52 1009.3
20191020012755 62 52 2.0 2.0 0.00 0.00 0.00 52 1009.3
20191020012256 62 52 2.0 2.0 0.00 0.00 0.00 52 1009.3
20191020011755 63 52 2.0 2.0 0.00 0.00 0.00 51 1009.3
20191020011254 64 52 1.0 2.0 0.00 0.00 0.00 50 1009.2
20191020010754 64 52 0.0 2.0 0.00 0.00 0.00 50 1009.2
20191020010255 65 52 0.0 1.0 0.00 0.00 0.00 49 1009.1
20191020005752 65 52 1.0 1.0 0.00 0.00 0.00 48 1009.1
20191020005252 66 52 0.0 1.0 0.00 0.00 0.00 47 1009.1
20191020004751 66 52 0.0 1.0 0.00 0.00 0.00 45 1008.9
20191020004253 67 52 0.0 0.0 0.00 0.00 0.00 45 1008.8
20191020003752 68 52 0.0 0.0 0.00 0.00 0.00 44 1008.8
20191020003254 69 52 0.0 1.0 0.00 0.00 0.00 44 1008.8
20191020002753 69 52 1.0 2.0 0.00 0.00 0.00 43 1008.7
20191020002253 70 52 1.0 2.0 0.00 0.00 0.00 42 1008.7
20191020001752 71 52 1.0 2.0 0.00 0.00 0.00 42 1008.7
20191020001254 72 52 1.0 2.0 0.00 0.00 0.00 41 1008.7
20191020000751 72 52 0.0 2.0 0.00 0.00 0.00 39 1008.7
20191020000252 73 52 0.0 0.0 0.00 0.00 0.00 38 1008.7
20191019235752 74 52 0.0 0.0 0.00 0.00 0.00 38 1008.7
20191019235253 74 52 0.0 0.0 0.00 0.00 0.00 38 1008.7
20191019234753 74 52 0.0 1.0 0.00 0.00 0.00 38 1008.7
20191019234253 74 52 1.0 2.0 0.00 0.00 0.00 37 1008.6
20191019233752 74 52 2.0 3.0 0.00 0.00 0.00 37 1008.6
20191019233253 75 52 2.0 3.0 0.00 0.00 0.00 34 1008.6
20191019232754 75 52 2.0 3.0 0.00 0.00 0.00 33 1008.6
20191019232252 76 52 1.0 3.0 0.00 0.00 0.00 33 1008.6
20191019231753 76 52 1.0 3.0 0.00 0.00 0.00 33 1008.6
20191019231252 76 52 2.0 4.0 0.00 0.00 0.00 33 1008.5
20191019230751 76 52 4.0 8.0 0.00 0.00 0.00 33 1008.5
20191019230253 76 53 5.0 8.0 0.00 0.00 0.00 32 1008.5
20191019225752 76 60 5.0 9.0 0.00 0.00 0.00 31 1008.5
20191019225253 76 50 5.0 11.0 0.00 0.00 0.00 31 1008.4
20191019224753 77 58 4.0 11.0 0.00 0.00 0.00 31 1008.5
20191019224251 77 50 3.0 8.0 0.00 0.00 0.00 31 1008.4
20191019223752 77 22 5.0 8.0 0.00 0.00 0.00 30 1008.3
20191019223253 78 59 4.0 8.0 0.00 0.00 0.00 30 1008.3
20191019222751 78 43 4.0 9.0 0.00 0.00 0.00 31 1008.3
20191019222247 78 48 4.0 9.0 0.00 0.00 0.00 30 1008.3
20191019221747 78 40 4.0 8.0 0.00 0.00 0.00 30 1008.3
20191019221248 78 33 4.0 11.0 0.00 0.00 0.00 30 1008.2
20191019220749 78 350 4.0 11.0 0.00 0.00 0.00 30 1008.3
20191019220248 78 30 3.0 7.0 0.00 0.00 0.00 31 1008.2
20191019215750 78 333 3.0 7.0 0.00 0.00 0.00 31 1008.2
20191019215249 78 347 5.0 11.0 0.00 0.00 0.00 31 1008.2
20191019214747 78 38 5.0 11.0 0.00 0.00 0.00 31 1008.2
20191019214247 78 46 6.0 12.0 0.00 0.00 0.00 31 1008.2
20191019213745 78 31 6.0 12.0 0.00 0.00 0.00 30 1008.3
20191019213245 79 17 4.0 12.0 0.00 0.00 0.00 30 1008.3
20191019212746 79 351 3.0 10.0 0.00 0.00 0.00 30 1008.3
20191019212246 79 24 3.0 10.0 0.00 0.00 0.00 31 1008.5
20191019211746 79 48 4.0 12.0 0.00 0.00 0.00 31 1008.4
20191019211244 79 19 5.0 12.0 0.00 0.00 0.00 31 1008.3
20191019210741 79 327 6.0 13.0 0.00 0.00 0.00 31 1008.3
20191019210243 78 28 6.0 13.0 0.00 0.00 0.00 31 1008.3
20191019205743 78 24 5.0 12.0 0.00 0.00 0.00 32 1008.4
20191019205243 78 9 6.0 13.0 0.00 0.00 0.00 33 1008.4
20191019204742 78 30 8.0 14.0 0.00 0.00 0.00 32 1008.4
20191019204242 78 65 9.0 16.0 0.00 0.00 0.00 33 1008.5
20191019203743 78 45 7.0 16.0 0.00 0.00 0.00 32 1008.5
20191019203242 79 32 5.0 11.0 0.00 0.00 0.00 32 1008.6
20191019202742 79 50 5.0 17.0 0.00 0.00 0.00 32 1008.6
20191019202239 79 26 6.0 17.0 0.00 0.00 0.00 33 1008.5
20191019201740 78 35 5.0 12.0 0.00 0.00 0.00 33 1008.6
20191019201239 78 61 4.0 10.0 0.00 0.00 0.00 34 1008.5
20191019200740 78 333 5.0 11.0 0.00 0.00 0.00 34 1008.6
20191019200240 78 337 7.0 15.0 0.00 0.00 0.00 34 1008.6
20191019195740 77 47 6.0 15.0 0.00 0.00 0.00 33 1008.6
20191019195239 77 347 6.0 14.0 0.00 0.00 0.00 35 1008.6
20191019194740 76 21 7.0 14.0 0.00 0.00 0.00 37 1008.6
20191019194239 76 34 7.0 14.0 0.00 0.00 0.00 37 1008.6
20191019193740 77 62 8.0 14.0 0.00 0.00 0.00 37 1008.7
20191019193237 77 37 9.0 16.0 0.00 0.00 0.00 37 1008.8
20191019192739 76 52 10.0 16.0 0.00 0.00 0.00 36 1008.9
20191019192237 76 46 9.0 15.0 0.00 0.00 0.00 36 1008.9
20191019191738 76 47 9.0 18.0 0.00 0.00 0.00 37 1008.9
20191019191238 76 48 10.0 18.0 0.00 0.00 0.00 38 1009.1
20191019190737 76 49 9.0 16.0 0.00 0.00 0.00 38 1009.2
20191019190239 76 42 9.0 17.0 0.00 0.00 0.00 37 1009.3
20191019185738 76 40 10.0 17.0 0.00 0.00 0.00 37 1009.3
20191019185237 76 51 11.0 18.0 0.00 0.00 0.00 38 1009.3
20191019184739 76 74 11.0 18.0 0.00 0.00 0.00 39 1009.4
20191019184236 75 49 12.0 19.0 0.00 0.00 0.00 39 1009.6
20191019183737 75 61 11.0 19.0 0.00 0.00 0.00 38 1009.7
20191019183235 75 47 12.0 21.0 0.00 0.00 0.00 40 1009.7
20191019182736 75 26 13.0 22.0 0.00 0.00 0.00 39 1009.8
20191019182237 75 54 12.0 25.0 0.00 0.00 0.00 39 1009.9
20191019181735 75 49 11.0 25.0 0.00 0.00 0.00 39 1009.9
20191019181235 75 40 9.0 17.0 0.00 0.00 0.00 40 1010.0
20191019180737 75 16 8.0 17.0 0.00 0.00 0.00 40 1010.0
20191019180235 74 5 9.0 17.0 0.00 0.00 0.00 41 1010.1
20191019175737 74 27 8.0 17.0 0.00 0.00 0.00 42 1010.2
20191019175235 74 13 8.0 17.0 0.00 0.00 0.00 42 1010.3
20191019174736 74 5 7.0 15.0 0.00 0.00 0.00 44 1010.4
20191019174236 74 0 7.0 15.0 0.00 0.00 0.00 45 1010.4
20191019173735 73 329 6.0 14.0 0.00 0.00 0.00 44 1010.3
20191019173235 73 34 6.0 13.0 0.00 0.00 0.00 45 1010.4
20191019172736 73 32 7.0 15.0 0.00 0.00 0.00 47 1010.4
20191019172236 73 21 6.0 15.0 0.00 0.00 0.00 47 1010.4
20191019171736 72 0 6.0 17.0 0.00 0.00 0.00 48 1010.5
20191019171235 72 11 7.0 17.0 0.00 0.00 0.00 49 1010.4
20191019170737 72 28 7.0 13.0 0.00 0.00 0.00 50 1010.3
20191019170236 71 0 7.0 13.0 0.00 0.00 0.00 51 1010.3
20191019165735 71 345 8.0 19.0 0.00 0.00 0.00 52 1010.3
20191019165235 70 315 9.0 19.0 0.00 0.00 0.00 52 1010.3
20191019164736 70 342 8.0 19.0 0.00 0.00 0.00 52 1010.2
20191019164235 70 16 7.0 18.0 0.00 0.00 0.00 53 1010.1
20191019163735 70 12 8.0 16.0 0.00 0.00 0.00 54 1010.2
20191019163236 70 313 9.0 20.0 0.00 0.00 0.00 55 1010.1
20191019162735 69 32 8.0 20.0 0.00 0.00 0.00 55 1010.0
20191019162235 69 335 7.0 18.0 0.00 0.00 0.00 57 1010.0
20191019161736 69 34 7.0 19.0 0.00 0.00 0.00 57 1010.1
20191019161237 68 355 8.0 19.0 0.00 0.00 0.00 58 1009.9
20191019160734 68 333 8.0 18.0 0.00 0.00 0.00 59 1009.9
20191019160235 68 34 7.0 18.0 0.00 0.00 0.00 60 1009.8
20191019155736 68 296 6.0 16.0 0.00 0.00 0.00 62 1009.8
20191019155233 67 44 6.0 15.0 0.00 0.00 0.00 64 1009.8
20191019154734 67 308 6.0 16.0 0.00 0.00 0.00 65 1009.7
20191019154233 66 355 6.0 16.0 0.00 0.00 0.00 65 1009.6
20191019153733 66 321 7.0 17.0 0.00 0.00 0.00 66 1009.6
20191019153234 66 30 6.0 17.0 0.00 0.00 0.00 67 1009.5
20191019152733 65 335 6.0 15.0 0.00 0.00 0.00 68 1009.5
20191019152233 65 16 7.0 15.0 0.00 0.00 0.00 69 1009.5
20191019151734 64 323 8.0 18.0 0.00 0.00 0.00 69 1009.4
20191019151233 64 332 8.0 18.0 0.00 0.00 0.00 70 1009.4
20191019150733 63 340 7.0 18.0 0.00 0.00 0.00 71 1009.3
20191019150234 63 27 8.0 18.0 0.00 0.00 0.00 72 1009.3
20191019145734 63 340 8.0 18.0 0.00 0.00 0.00 72 1009.3
20191019145233 62 355 7.0 15.0 0.00 0.00 0.00 73 1009.3
20191019144733 62 47 7.0 16.0 0.00 0.00 0.00 74 1009.2
20191019144235 62 346 8.0 16.0 0.00 0.00 0.00 75 1009.1
20191019143733 61 315 9.0 16.0 0.00 0.00 0.00 76 1008.8
20191019143233 61 331 9.0 16.0 0.00 0.00 0.00 77 1008.7
20191019142733 60 348 8.0 16.0 0.00 0.00 0.00 78 1008.7
20191019142234 60 323 8.0 15.0 0.00 0.00 0.00 79 1008.5
20191019141734 60 298 8.0 15.0 0.00 0.00 0.00 80 1008.3
20191019141232 60 332 9.0 15.0 0.00 0.00 0.00 80 1008.2
20191019140734 59 336 9.0 17.0 0.00 0.00 0.00 81 1008.1
20191019140233 59 332 9.0 18.0 0.00 0.00 0.00 82 1007.9
20191019135733 58 324 7.0 18.0 0.00 0.00 0.00 82 1007.9
20191019135234 58 300 7.0 16.0 0.00 0.00 0.00 83 1007.7
20191019134733 58 313 9.0 19.0 0.00 0.00 0.00 83 1007.5
20191019134234 57 333 10.0 19.0 0.00 0.00 0.00 83 1007.5
20191019133733 57 315 9.0 19.0 0.00 0.00 0.00 83 1007.3
20191019133234 57 13 8.0 18.0 0.00 0.00 0.00 83 1007.3
20191019132733 56 5 7.0 15.0 0.00 0.00 0.00 83 1007.2
20191019132234 56 315 7.0 17.0 0.00 0.00 0.00 83 1007.1
20191019131733 56 299 7.0 17.0 0.00 0.00 0.00 83 1007.0
20191019131233 55 298 8.0 15.0 0.00 0.00 0.00 83 1006.9
20191019130732 55 346 9.0 15.0 0.00 0.00 0.00 83 1006.8
20191019130233 55 329 9.0 16.0 0.00 0.00 0.00 84 1006.7
20191019125733 55 329 9.0 16.0 0.00 0.00 0.00 84 1006.6
20191019125234 55 327 9.0 16.0 0.00 0.00 0.00 84 1006.4
20191019124733 55 322 8.0 14.0 0.00 0.00 0.00 84 1006.2
20191019124233 55 319 7.0 15.0 0.00 0.00 0.00 84 1006.1
20191019123733 56 336 7.0 15.0 0.00 0.00 0.00 83 1006.1
20191019123233 56 320 8.0 15.0 0.00 0.00 0.00 83 1006.0
20191019122733 56 327 10.0 18.0 0.00 0.00 0.00 83 1005.9
20191019122233 56 349 10.0 18.0 0.00 0.00 0.00 83 1005.8
20191019121732 56 330 10.0 18.0 0.00 0.00 0.00 83 1005.8
20191019121234 56 331 10.0 18.0 0.00 0.00 0.00 82 1005.7
20191019120731 56 321 10.0 18.0 0.00 0.00 0.00 82 1005.6
20191019120230 56 314 9.0 17.0 0.00 0.00 0.00 81 1005.4
20191019115732 56 311 10.0 19.0 0.00 0.00 0.00 81 1005.4
20191019115231 56 309 9.0 19.0 0.00 0.00 0.00 80 1005.3
20191019114732 56 281 8.0 16.0 0.00 0.00 0.00 80 1005.1
20191019114231 57 330 8.0 16.0 0.00 0.00 0.00 79 1005.0
20191019113732 57 293 8.0 14.0 0.00 0.00 0.00 79 1004.8